Dewpoint
54 53 51 51 51 53 53 50 48 46 43 42 42 45 45 46 48 48 50 56 61 67 67 67 67 67 67 67 66 66 66 66 66 66 66 66 66 66 66 65 64 64 64
53 52 51 50 50 51 50 48 46 44 43 42 39 41 42 42 42 45 48 49 55 62 67 67 67 67 67 67 66 66 65 66 66 66 66 66 66 66 66 66 66 66 66
53 52 51 50 48 47 46 45 44 43 41 40 39 39 38 38 38 41 42 46 49 53 60 67 67 67 66 65 67 67 66 66 66 65 65 65 64 64 64 64 64 64 64
53 52 50 48 47 48 47 46 45 42 40 39 37 35 36 36 38 39 40 42 47 48 51 59 66 67 66 68 67 67 66 64 63 63 63 63 62 62 62 62 62 62 63
52 51 49 48 48 47 47 44 43 42 38 36 34 33 33 34 34 36 38 40 44 45 47 52 56 62 66 66 66 65 64 63 62 61 61 61 60 60 60 60 60 60 60
50 49 48 47 48 46 44 43 39 38 36 33 29 29 30 31 32 33 36 38 41 42 43 46 50 52 61 63 63 62 62 61 60 59 58 58 58 58 57 57 57 57 58
49 49 48 48 47 46 43 39 38 36 34 34 34 31 30 29 29 30 33 36 37 38 39 41 44 48 51 58 60 59 59 58 57 57 56 56 56 55 54 54 54 54 55
49 49 48 48 46 42 39 38 38 36 35 35 40 39 36 31 27 28 30 29 32 35 35 37 40 43 46 50 54 58 57 57 55 54 53 53 52 51 51 51 51 51 51
49 49 48 47 45 43 41 40 39 38 36 33 35 42 41 43 28 27 28 28 28 30 33 35 37 40 42 46 50 53 55 54 54 54 52 51 50 50 50 50 50 49 49
49 48 47 46 44 43 40 39 37 38 39 35 31 29 33 33 35 28 26 27 27 25 28 31 33 35 38 42 47 51 52 52 52 52 51 50 49 49 48 48 48 48 48
47 47 46 45 43 42 40 38 37 38 39 35 33 30 28 28 28 30 25 25 27 28 27 28 30 31 34 39 42 47 50 49 50 49 49 49 48 48 47 46 46 48 45
45 44 45 44 43 41 39 38 38 39 37 35 32 30 29 28 25 26 24 23 24 27 27 27 28 28 33 36 39 45 46 46 46 46 46 46 46 46 45 45 44 44 45
43 42 42 42 41 40 38 37 37 36 35 34 31 30 29 29 28 27 26 25 24 26 27 27 27 27 26 33 38 41 43 43 43 44 45 44 43 43 43 43 44 43 42
45 43 41 40 38 37 36 35 35 33 32 33 31 30 29 30 29 28 29 27 24 24 25 26 27 26 27 29 34 36 38 39 40 40 40 40 41 41 41 42 41 41 41
41 41 40 37 36 35 34 33 32 29 29 29 30 30 29 29 30 29 29 29 31 24 22 24 25 25 26 26 28 30 33 35 36 36 36 37 38 39 39 39 39 39 38
41 39 38 37 36 34 31 30 29 27 27 28 28 27 28 28 29 29 30 29 28 28 24 24 24 24 24 23 25 24 29 32 34 35 35 36 37 35 35 35 35 35 35
38 38 37 37 36 35 34 32 29 27 26 25 25 25 25 27 27 27 27 26 26 26 24 23 23 23 21 21 21 23 26 28 31 33 34 34 34 33 34 34 33 32 33
38 37 36 35 34 33 33 32 29 28 24 24 24 24 23 22 25 26 25 24 24 25 25 22 22 22 21 20 21 23 22 23 29 32 34 34 32 31 30 30 30 30 30
36 36 35 34 34 33 31 30 27 25 23 23 22 22 22 23 23 24 24 24 24 22 24 23 21 22 21 21 22 24 24 24 26 30 30 29 28 28 29 30 29 30 30
35 35 34 33 33 32 32 31 29 28 25 24 23 22 21 21 22 23 22 23 23 23 23 23 21 20 21 22 22 22 23 24 23 22 24 26 26 28 29 30 30 31 31
33 34 33 33 33 32 30 29 27 26 24 22 22 21 22 23 25 23 22 22 23 22 22 21 20 20 21 22 21 24 22 23 24 24 22 22 22 23 23 24 26 29 30
32 32 32 31 31 32 35 33 29 28 28 27 27 30 28 29 28 28 27 26 28 28 25 21 20 19 21 23 24 23 22 20 19 25 22 20 23 21 22 21 26 26 26
31 31 31 31 31 33 34 33 32 29 29 30 31 32 31 30 29 27 28 28 27 27 26 30 27 25 25 24 22 20 20 20 21 23 23 19 22 19 21 19 26 26 26
31 31 31 31 32 34 37 36 33 31 31 31 32 31 30 28 28 27 25 23 21 21 23 22 26 25 24 22 21 22 23 23 23 23 24 20 23 19 20 21 25 26 26
30 30 31 32 32 34 38 37 32 30 30 29 29 29 28 27 31 28 25 26 24 24 26 27 27 27 28 28 27 26 26 24 20 19 23 23 22 19 19 21 23 26 25
30 31 31 32 35 33 37 35 31 30 29 28 28 27 29 26 29 27 24 27 27 25 26 27 28 28 27 29 28 25 25 23 22 22 22 22 22 20 18 18 22 20 18
Lifted_Index
1 1 1 0 -0 -0 0 1 1 1 1 1 1 1 1 1 1 1 1 1 1 0 -1 -1 -1 -1 -1 -0 0 0 0 1 1 0 0 0 0 0 0 0 0 1 1
1 1 1 1 0 0 0 1 1 1 1 1 2 2 2 1 1 1 1 1 1 0 -0 -1 -1 -1 -0 -0 0 0 0 0 0 0 0 0 0 0 0 1 1 1 1
1 1 1 0 0 0 0 0 1 1 1 2 2 2 2 2 1 1 1 1 1 0 0 -0 -1 -1 -0 0 0 0 0 1 1 1 1 1 1 1 1 1 1 1 1
0 -0 -0 -0 -0 -0 0 0 0 1 1 2 2 2 2 2 2 1 1 1 1 1 0 0 -0 -0 0 0 0 1 1 1 1 1 1 1 2 2 2 2 2 2 2
-0 -0 -0 -0 -0 -0 0 0 0 1 1 2 2 2 3 3 2 2 2 2 2 2 2 1 1 1 1 1 1 2 2 2 2 2 2 3 3 3 3 3 4 4 4
0 0 0 0 0 0 0 0 0 1 1 2 3 3 3 3 3 3 3 3 3 3 3 2 2 2 2 2 2 3 3 4 4 4 5 5 6 6 6 5 5 5 5
0 0 0 0 0 0 0 0 0 1 2 2 3 4 4 4 3 3 3 3 4 4 4 4 3 3 3 4 4 4 5 6 6 7 8 8 9 9 9 9 8 8 7
-0 0 0 0 0 0 0 0 1 1 2 2 3 4 4 4 4 4 4 4 5 5 5 5 5 5 5 5 6 6 7 7 8 9 10 10 11 11 11 11 11 11 11
-0 -0 0 0 0 0 0 0 1 1 2 2 3 3 4 4 4 4 5 5 6 6 7 6 6 6 7 7 7 8 8 9 10 10 11 12 12 12 12 13 13 13 13
-1 -0 0 0 0 0 1 1 1 1 2 2 3 3 4 4 4 4 5 6 7 8 9 8 8 8 8 8 8 9 9 10 11 11 12 13 13 13 13 13 14 14 14
-1 -0 0 0 1 1 1 1 1 1 2 2 3 3 4 4 4 4 5 6 7 9 11 11 11 10 10 10 10 10 10 11 12 13 13 14 14 14 14 14 14 14 15
-1 -1 0 0 1 1 1 2 2 2 2 2 3 4 4 4 4 5 5 6 7 9 12 14 15 14 13 13 12 12 13 13 13 14 15 15 15 15 15 15 15 15 15
-1 -1 -0 1 1 1 2 2 2 2 2 3 3 4 5 5 6 6 6 6 7 8 11 14 17 18 18 17 17 16 16 16 16 16 16 17 16 16 16 16 16 16 17
-1 -0 0 1 2 2 2 2 3 3 3 3 4 5 6 7 8 8 8 8 7 8 9 12 16 19 20 20 20 20 20 19 19 19 18 18 18 18 18 18 18 18 18
-0 1 1 2 2 3 3 3 3 4 4 4 5 6 7 8 9 9 10 9 9 8 9 10 14 18 20 21 22 22 22 21 21 20 20 20 20 19 19 19 19 19 20
2 2 3 3 3 4 4 4 4 5 5 5 7 8 8 9 9 10 10 10 10 9 9 11 14 17 19 21 21 22 22 22 22 21 21 21 21 21 21 21 21 21 21
3 3 4 4 4 4 4 5 5 6 6 7 8 9 10 10 9 10 10 11 11 10 10 12 15 17 18 20 21 22 22 22 22 22 21 21 21 22 22 22 22 22 21
3 3 4 4 5 4 5 5 6 6 7 9 10 11 11 10 10 10 10 10 11 11 11 12 14 16 18 19 20 21 22 22 22 22 22 22 22 22 22 22 22 22 22
3 4 4 5 5 5 6 6 6 7 9 11 12 13 13 12 11 11 10 10 11 12 12 12 14 16 18 19 20 20 20 21 21 22 22 22 22 22 22 22 22 22 22
4 4 5 6 6 7 7 7 8 9 10 12 14 15 15 14 13 13 12 12 13 13 14 14 14 16 17 18 18 18 18 19 20 21 21 21 21 22 22 22 22 21 21
5 6 6 7 7 8 8 9 9 10 11 12 15 17 16 16 16 15 15 15 15 15 15 15 15 15 16 16 17 17 17 17 18 19 20 20 21 21 21 21 21 21 21
6 7 8 8 8 9 10 10 11 12 12 14 16 17 16 16 17 17 17 17 16 16 16 15 15 14 15 16 16 16 16 16 17 18 19 19 20 20 21 21 21 21 21
7 8 9 10 10 11 12 12 13 14 14 15 16 16 15 16 17 17 17 17 17 17 17 16 15 15 15 16 17 17 16 16 17 18 18 18 19 20 21 22 21 21 21
9 9 11 12 12 13 14 14 15 15 15 15 16 16 16 17 17 17 17 17 16 17 17 17 17 17 17 17 18 17 17 17 17 18 18 18 19 20 21 21 21 21 20
10 11 13 13 14 15 15 16 15 15 15 15 16 17 18 18 18 18 18 17 17 17 18 18 18 18 18 19 19 18 17 17 16 18 19 19 19 19 20 20 20 20 20
11 12 13 14 15 16 17 17 16 15 15 15 17 18 19 19 19 19 18 17 17 17 17 18 18 19 19 19 19 18 17 16 16 17 19 20 19 19 19 19 20 20 19